TimeCDT,TemperatureF,Dew PointF,Humidity,Sea Level PressureIn,VisibilityMPH,Wind Direction,Wind SpeedMPH,Gust SpeedMPH,PrecipitationIn,Events,Conditions,WindDirDegrees,DateUTC
12:15 AM,55.4,52.7,91,30.11,10.0,North,9.2,-,N/A,,Mostly Cloudy,360,2013-10-22 05:15:00
12:35 AM,55.2,52.9,92,30.11,10.0,North,9.2,-,N/A,,Scattered Clouds,350,2013-10-22 05:35:00
12:55 AM,55.4,52.9,91,30.11,10.0,North,12.7,-,N/A,,Mostly Cloudy,360,2013-10-22 05:55:00
1:15 AM,55.0,52.7,92,30.12,10.0,North,11.5,-,N/A,,Overcast,350,2013-10-22 06:15:00
1:35 AM,55.4,52.7,91,30.12,10.0,North,10.4,-,N/A,,Overcast,350,2013-10-22 06:35:00
1:55 AM,54.9,52.2,91,30.12,10.0,North,6.9,-,N/A,,Overcast,350,2013-10-22 06:55:00
2:15 AM,54.7,52.0,91,30.12,10.0,NNW,8.1,-,N/A,,Overcast,330,2013-10-22 07:15:00
2:35 AM,53.8,50.7,89,30.13,10.0,NNW,11.5,-,N/A,,Overcast,330,2013-10-22 07:35:00
2:55 AM,52.0,49.1,90,30.14,10.0,NNW,8.1,-,N/A,,Scattered Clouds,340,2013-10-22 07:55:00
3:15 AM,51.3,48.9,92,30.13,10.0,NNW,8.1,-,N/A,,Clear,330,2013-10-22 08:15:00
3:35 AM,50.9,48.4,91,30.13,10.0,NNW,8.1,-,N/A,,Clear,330,2013-10-22 08:35:00
3:55 AM,50.4,47.5,90,30.13,10.0,NNW,5.8,-,N/A,,Clear,330,2013-10-22 08:55:00
4:15 AM,50.4,46.8,87,30.13,10.0,North,5.8,-,N/A,,Clear,350,2013-10-22 09:15:00
4:35 AM,50.0,45.7,85,30.12,10.0,North,5.8,-,N/A,,Clear,360,2013-10-22 09:35:00
4:55 AM,49.3,44.6,84,30.12,10.0,Calm,Calm,-,N/A,,Clear,0,2013-10-22 09:55:00
5:15 AM,49.5,43.9,81,30.12,10.0,North,4.6,-,N/A,,Clear,360,2013-10-22 10:15:00
5:35 AM,49.5,44.6,83,30.12,10.0,NNW,5.8,-,N/A,,Clear,330,2013-10-22 10:35:00
5:55 AM,48.2,44.1,86,30.13,10.0,NW,3.5,-,N/A,,Clear,320,2013-10-22 10:55:00
6:15 AM,47.7,44.1,87,30.13,10.0,NW,4.6,-,N/A,,Clear,320,2013-10-22 11:15:00
6:35 AM,46.9,44.2,90,30.14,10.0,NW,3.5,-,N/A,,Clear,310,2013-10-22 11:35:00
6:55 AM,46.9,43.9,89,30.14,10.0,NW,4.6,-,N/A,,Clear,310,2013-10-22 11:55:00
7:15 AM,46.6,43.0,87,30.14,10.0,NNW,5.8,-,N/A,,Clear,330,2013-10-22 12:15:00
7:35 AM,46.6,43.0,87,30.14,10.0,NNW,4.6,-,N/A,,Clear,330,2013-10-22 12:35:00
7:55 AM,46.9,43.0,86,30.14,10.0,NNW,3.5,-,N/A,,Clear,330,2013-10-22 12:55:00
8:15 AM,47.8,43.7,86,30.15,10.0,NW,3.5,-,N/A,,Clear,320,2013-10-22 13:15:00
8:35 AM,49.1,44.6,84,30.16,10.0,Calm,Calm,-,N/A,,Clear,0,2013-10-22 13:35:00
8:55 AM,50.2,44.2,80,30.17,10.0,NW,5.8,-,N/A,,Clear,310,2013-10-22 13:55:00
9:15 AM,50.9,45.0,80,30.17,10.0,NW,4.6,-,N/A,,Clear,320,2013-10-22 14:15:00
9:35 AM,52.0,44.1,74,30.18,10.0,NW,3.5,-,N/A,,Clear,310,2013-10-22 14:35:00
9:55 AM,53.6,44.1,70,30.18,10.0,NNW,4.6,-,N/A,,Clear,330,2013-10-22 14:55:00
10:15 AM,55.6,45.0,67,30.19,10.0,NNW,5.8,-,N/A,,Clear,330,2013-10-22 15:15:00
10:35 AM,57.6,43.9,60,30.18,10.0,North,3.5,-,N/A,,Clear,350,2013-10-22 15:35:00
10:55 AM,59.5,41.4,51,30.18,10.0,North,5.8,-,N/A,,Clear,10,2013-10-22 15:55:00
11:15 AM,61.9,37.8,41,30.18,10.0,North,8.1,-,N/A,,Clear,350,2013-10-22 16:15:00
11:35 AM,62.8,38.3,40,30.18,10.0,North,4.6,-,N/A,,Clear,350,2013-10-22 16:35:00
11:55 AM,63.5,37.9,39,30.17,10.0,Calm,Calm,-,N/A,,Clear,0,2013-10-22 16:55:00
12:15 PM,63.3,37.0,38,30.16,10.0,West,3.5,-,N/A,,Clear,280,2013-10-22 17:15:00
12:35 PM,64.6,36.5,35,30.15,10.0,Calm,Calm,-,N/A,,Clear,0,2013-10-22 17:35:00
12:55 PM,66.2,36.0,33,30.14,10.0,Calm,Calm,-,N/A,,Clear,0,2013-10-22 17:55:00
1:15 PM,67.5,39.4,36,30.13,10.0,North,3.5,-,N/A,,Clear,350,2013-10-22 18:15:00
1:35 PM,68.5,39.2,34,30.11,10.0,WNW,4.6,-,N/A,,Clear,290,2013-10-22 18:35:00
1:55 PM,70.0,39.2,33,30.09,10.0,NW,4.6,-,N/A,,Clear,310,2013-10-22 18:55:00
2:15 PM,70.9,40.1,33,30.09,10.0,WNW,6.9,-,N/A,,Clear,300,2013-10-22 19:15:00
2:35 PM,71.4,40.5,33,30.08,10.0,West,11.5,-,N/A,,Clear,270,2013-10-22 19:35:00
2:55 PM,72.5,40.5,31,30.07,10.0,SW,8.1,-,N/A,,Clear,230,2013-10-22 19:55:00
3:15 PM,72.9,39.9,30,30.06,10.0,WNW,8.1,-,N/A,,Clear,290,2013-10-22 20:15:00
3:35 PM,74.3,39.7,29,30.06,10.0,West,9.2,-,N/A,,Clear,280,2013-10-22 20:35:00
3:55 PM,74.3,38.8,28,30.06,10.0,WNW,10.4,17.3,N/A,,Clear,290,2013-10-22 20:55:00
4:15 PM,74.3,38.5,27,30.06,10.0,West,13.8,17.3,N/A,,Clear,270,2013-10-22 21:15:00
4:35 PM,74.3,39.4,28,30.06,10.0,West,12.7,-,N/A,,Clear,260,2013-10-22 21:35:00
4:55 PM,73.9,38.8,28,30.05,10.0,West,8.1,17.3,N/A,,Clear,270,2013-10-22 21:55:00
5:15 PM,73.6,40.1,30,30.04,10.0,West,12.7,-,N/A,,Clear,270,2013-10-22 22:15:00
5:35 PM,73.0,41.0,31,30.04,10.0,West,10.4,-,N/A,,Clear,270,2013-10-22 22:35:00
5:55 PM,72.5,41.5,33,30.04,10.0,West,6.9,-,N/A,,Clear,260,2013-10-22 22:55:00
6:15 PM,71.1,42.6,36,30.04,10.0,WSW,5.8,-,N/A,,Clear,250,2013-10-22 23:15:00
6:35 PM,69.1,43.5,40,30.04,10.0,WSW,4.6,-,N/A,,Clear,240,2013-10-22 23:35:00
6:55 PM,67.5,43.7,42,30.04,10.0,SW,5.8,-,N/A,,Clear,230,2013-10-22 23:55:00
7:15 PM,64.9,44.8,48,30.04,10.0,SW,6.9,-,N/A,,Clear,230,2013-10-23 00:15:00
7:35 PM,64.4,44.8,49,30.05,10.0,SW,6.9,-,N/A,,Clear,230,2013-10-23 00:35:00
7:55 PM,62.8,45.0,52,30.05,10.0,SW,6.9,-,N/A,,Clear,230,2013-10-23 00:55:00
8:15 PM,62.6,44.6,52,30.06,10.0,SW,8.1,-,N/A,,Clear,230,2013-10-23 01:15:00
8:35 PM,62.1,44.6,53,30.06,10.0,SW,6.9,-,N/A,,Clear,220,2013-10-23 01:35:00
8:55 PM,61.7,44.6,53,30.06,10.0,SW,6.9,-,N/A,,Clear,230,2013-10-23 01:55:00
9:15 PM,61.0,45.0,56,30.06,10.0,SW,6.9,-,N/A,,Clear,220,2013-10-23 02:15:00
9:35 PM,60.8,45.0,56,30.06,10.0,SW,5.8,-,N/A,,Clear,220,2013-10-23 02:35:00
10:15 PM,59.7,45.5,59,30.08,10.0,WSW,4.6,-,N/A,,Clear,240,2013-10-23 03:15:00
10:35 PM,58.6,45.5,62,30.08,10.0,Calm,Calm,-,N/A,,Clear,0,2013-10-23 03:35:00
10:55 PM,58.8,45.1,60,30.08,10.0,Calm,Calm,-,N/A,,Clear,0,2013-10-23 03:55:00
11:15 PM,57.9,45.5,63,30.08,10.0,Calm,Calm,-,N/A,,Clear,0,2013-10-23 04:15:00
11:35 PM,58.1,45.0,62,30.09,10.0,Calm,Calm,-,N/A,,Clear,0,2013-10-23 04:35:00
11:55 PM,58.3,45.0,61,30.09,10.0,Calm,Calm,-,N/A,,Clear,0,2013-10-23 04:55:00